Date,TemperatureHighF,TemperatureAvgF,TemperatureLowF,DewpointHighF,DewpointAvgF,DewpointLowF,HumidityHigh,HumidityAvg,HumidityLow,PressureMaxIn,PressureMinIn,WindSpeedMaxMPH,WindSpeedAvgMPH,GustSpeedMaxMPH,PrecipitationSumIn
2013-5-2,65,59,54,57,52,49,83,80,76,30.04,29.99,13,6,13,0.05
2013-5-3,58,52,48,51,47,43,84,82,75,30.01,29.94,15,7,15,0.06
2013-5-4,65,54,45,56,48,40,84,80,66,30.12,30.00,7,2,7,0.08
2013-5-5,68,56,47,58,50,42,84,81,63,30.24,30.11,17,3,17,0.11
2013-5-6,65,57,46,58,51,41,84,83,79,30.21,30.01,13,4,13,0.02
2013-5-7,73,63,55,63,57,50,84,79,66,30.02,29.92,21,8,21,0.14
2013-5-8,76,63,56,65,56,51,84,79,60,29.99,29.89,15,4,15,0.06
2013-5-9,77,64,51,66,56,46,84,76,55,29.97,29.87,10,3,10,0.01
2013-5-10,61,57,52,55,52,46,83,83,82,30.00,29.83,14,4,14,0.84
2013-5-11,58,53,50,53,48,45,84,83,82,30.00,29.93,8,4,8,0.07
2013-5-12,68,54,45,55,47,40,84,77,55,30.03,29.86,24,5,24,0.02
2013-5-13,63,54,44,49,45,40,84,72,53,30.07,29.98,24,8,24,0.04
2013-5-14,68,57,48,52,47,43,85,71,44,29.98,29.82,12,4,12,0.01
2013-5-15,74,61,44,57,50,39,85,69,51,29.82,29.59,24,10,24,0.00
2013-5-16,76,64,53,58,53,48,84,69,42,29.60,29.45,29,11,29,0.01
2013-5-17,77,66,57,60,56,51,82,71,49,29.54,29.47,23,11,23,0.01
2013-5-18,70,60,51,56,52,47,85,76,54,29.84,29.54,20,8,20,0.17
2013-5-19,76,61,44,59,52,40,84,72,49,29.83,29.60,32,7,32,0.02
2013-5-20,70,58,49,52,48,44,85,70,46,29.88,29.74,20,8,20,0.00
2013-5-21,71,58,44,52,47,40,85,69,46,29.91,29.78,15,5,15,0.00
2013-5-22,65,52,45,54,46,40,85,79,58,29.83,29.64,24,8,24,0.06
2013-5-23,61,49,40,43,40,36,89,71,44,29.84,29.71,20,5,20,0.00
2013-5-24,58,48,37,47,41,32,85,77,59,29.85,29.72,12,4,12,0.00
2013-5-25,58,48,43,50,43,39,85,82,70,29.85,29.78,17,7,17,0.19
2013-5-26,49,45,43,44,40,38,85,84,83,29.79,29.67,21,11,21,0.42
2013-5-27,58,50,43,52,45,38,84,83,79,29.80,29.63,15,7,15,1.18
2013-5-28,67,54,43,55,47,38,85,79,62,29.80,29.55,13,6,13,0.00
2013-5-29,66,56,46,58,50,42,84,80,64,29.64,29.51,15,5,15,0.01
2013-5-30,56,51,49,51,46,44,84,84,83,29.67,29.44,15,9,15,0.50
2013-5-31,61,53,46,53,48,41,86,83,68,29.67,29.42,20,4,20,0.13